sat.trackr.live / text

‹ back to catalog

ELARASAT MMS-1

NORAD 64539 · 2025-135M

PAYLOAD ACTIVE UNKNOWN

§ Identity

Operator
Country
AUS
Launch date
2025-06-23
Launch site
AFWTR
Launch vehicle
Mass (kg)
RCS (m²)

External: N2YO · Heavens-Above · Gunter

§ Orbital elements

Epoch: 2026-09-20T06:59:44.469024Z

Period
94.51 min
Inclination
97.4768°
Eccentricity
0.0001679
Mean motion
15.23571526 rev/d
Perigee alt
493.9 km
Apogee alt
496.2 km
Semi-major
6,873.2 km
B*
1.2074e-4
RAAN
18.4166°
Arg perigee
184.9546°
Mean anomaly
175.1674°
Rev number
6,935

§ Raw data

ELARASAT MMS-11 64539U 25135M   26263.29148691  .00002815  00000+0  12074-3 0  99942 64539  97.4768  18.4166 0001679 184.9546 175.1674 15.23571526 69357

JSON: /api/v1/satellites/64539 · /tle

For live sub-satellite position, see the globe view (requires WebGL).

§ Visibility from observer

Set your observer location to see the next 7 days of passes ≥ 10°. The values pass through the URL so the page stays shareable.

No JS? Fill the form by hand. The geolocation button needs JavaScript.